FW0903 Weather Reports


time (UTC)temp
F
wind
direction
speed
knots
gust
knots
rain 1hr
in
rain 24hr
in
rain mn
in
humidity
%
barometer
mb
20260503234018 50 0.0 0.9 0.00 4.48 4.48 73 1011.6
20260503233020 50 0.0 0.9 0.04 4.48 4.48 72 1011.6
20260503232020 50 203 0.9 7.8 0.05 4.48 4.48 73 1011.8
20260503231020 50 0.0 0.9 0.18 4.48 4.48 73 1012.0
20260503230018 50 225 0.9 8.7 0.30 4.48 4.48 72 1012.2
20260503225040 51 225 7.0 13.0 0.55 4.48 4.48 71 1012.5
20260503224020 51 0 9.6 19.1 0.63 4.48 4.48 69 1012.7
20260503223022 52 0 7.0 18.2 0.75 4.44 4.44 68 1012.9
20260503222018 52 225 12.2 18.2 0.79 4.43 4.43 66 1012.8
20260503221020 53 0 10.4 19.1 0.79 4.30 4.30 64 1012.9
20260503220020 56 0 12.2 20.9 0.75 4.18 4.18 60 1012.7
20260503215139 58 0 7.8 17.4 0.56 3.93 3.93 47 1012.5
20260503214020 58 225 7.8 15.6 0.56 3.85 3.85 47 1012.3
20260503213019 59 0 4.3 12.2 0.48 3.69 3.69 46 1012.3
20260503212040 58 225 7.8 19.1 0.88 3.64 3.64 45 1012.5
20260503211020 59 225 9.6 17.4 0.78 3.51 3.51 44 1012.6
20260503210020 59 0 7.8 17.4 1.17 3.43 3.43 45 1012.7
20260503205020 59 225 7.0 18.2 1.15 3.37 3.37 45 1012.8
20260503204019 59 0 10.4 16.5 1.35 3.29 3.29 44 1012.9
20260503203020 59 225 2.6 14.8 1.45 3.21 3.21 45 1013.0
20260503202020 59 0 4.3 16.5 1.18 2.76 2.76 45 1013.1
20260503201020 59 225 8.7 17.4 1.35 2.73 2.73 44 1013.3
20260503200020 59 0 7.8 16.5 1.33 2.26 2.26 44 1013.5
20260503195020 59 225 0.9 2.6 1.77 2.22 2.22 44 1013.6
20260503194020 59 0 6.1 14.8 1.94 1.94 1.94 44 1013.7
20260503193020 60 0 1.7 12.2 1.76 1.76 1.76 44 1013.7
20260503192020 59 225 9.6 19.1 1.58 1.58 1.58 44 1013.9
20260503191020 60 0 4.3 12.2 1.38 1.38 1.38 43 1013.9
20260503190019 59 225 8.7 16.5 0.93 0.93 0.93 45 1014.1
20260503185020 59 0 9.6 17.4 0.45 0.45 0.45 43 1014.3
20260503184020 59 225 10.4 19.1 0.00 0.00 0.00 42 1014.5
20260503183020 59 225 3.5 14.8 0.00 0.00 0.00 44 1014.6
20260503182018 59 0 6.1 17.4 0.00 0.00 0.00 45 1014.7
20260503181020 58 0 8.7 14.8 0.00 0.00 0.00 44 1014.8
20260503180020 58 225 9.6 19.1 0.00 0.00 0.00 44 1015.0
20260503175018 58 0 4.3 14.8 0.00 0.00 0.00 46 1015.1
20260503174040 58 225 7.8 15.6 0.00 0.00 0.00 43 1015.3
20260503173019 58 225 4.3 16.5 0.00 0.00 0.00 46 1015.3
20260503172019 58 225 2.6 9.6 0.00 0.00 0.00 48 1015.4
20260503171018 58 225 7.8 18.2 0.00 0.00 0.00 45 1015.6
20260503131019 46 225 0.9 5.2 0.00 0.00 0.00 63 1016.9
20260503110519 37 0.0 0.9 0.00 0.00 0.00 74 1016.5
20260503081519 37 0.0 0.0 0.00 0.00 0.00 75 1016.4
20260503080519 37 0.0 0.0 0.00 0.00 0.00 75 1016.4
20260503072520 38 0.0 0.0 0.00 0.00 0.00 74 1016.4
20260503071519 38 0.0 0.0 0.00 0.00 0.00 74 1016.5
20260503071019 38 0.0 0.9 0.00 0.00 0.00 74 1016.5
20260503055019 39 0.0 0.9 0.00 0.00 0.00 72 1016.8
20260503054019 39 0.0 0.9 0.00 0.00 0.00 72 1016.7
20260503053020 39 0.0 0.0 0.00 0.00 0.00 71 1016.8
20260503052020 39 0.0 0.9 0.00 0.00 0.00 70 1016.8
20260503051019 40 0.0 0.9 0.00 0.00 0.00 70 1016.8
20260503050020 39 0.0 0.9 0.00 0.00 0.00 70 1016.9
20260503045020 40 0.0 0.0 0.00 0.00 0.00 70 1017.0
20260503044019 40 0.0 0.9 0.00 0.00 0.00 70 1016.9
20260503043019 40 0.0 0.0 0.00 0.00 0.00 69 1016.8
20260503042020 40 0.0 0.0 0.00 0.00 0.00 68 1016.8
20260503041020 41 0.0 0.9 0.00 0.00 0.00 68 1016.8
20260503040020 41 0.0 0.0 0.00 0.00 0.00 67 1016.9
20260503035019 41 0.0 0.0 0.00 0.00 0.00 66 1016.9
20260503034041 41 0.0 0.0 0.00 0.00 0.00 66 1016.9
20260503033020 42 0.0 0.0 0.00 0.00 0.00 65 1016.8
20260503032020 42 0.0 0.9 0.00 0.00 0.00 65 1016.9
20260503031018 42 0.0 0.0 0.00 0.00 0.00 66 1016.9
20260503030020 42 0.0 0.0 0.00 0.00 0.00 66 1017.1
20260503025020 42 0.0 0.0 0.00 0.00 0.00 64 1017.1
20260503024020 42 0.0 0.0 0.00 0.00 0.00 64 1017.1
20260503023039 42 0.0 0.0 0.00 0.00 0.00 66 1017.1
20260503022020 42 0.0 0.9 0.00 0.00 0.00 67 1017.1
20260503021020 42 0.0 0.0 0.00 0.00 0.00 67 1017.1
20260503020040 43 0.0 0.0 0.00 0.00 0.00 67 1017.0
20260503015040 43 0.0 0.0 0.00 0.00 0.00 69 1017.0
20260503014020 43 0.0 0.0 0.00 0.00 0.00 68 1017.0
20260503013019 43 0.0 0.0 0.00 0.00 0.00 65 1016.9
20260503012040 44 0.0 0.0 0.00 0.00 0.00 61 1016.9
20260503011040 44 0.0 0.0 0.00 0.00 0.00 59 1016.8
20260503010020 44 0.0 0.0 0.00 0.00 0.00 59 1016.8
20260503005020 44 0.0 0.0 0.00 0.00 0.00 60 1016.8
20260503004020 44 0.0 0.0 0.00 0.00 0.00 59 1016.8
20260503003020 45 0.0 0.0 0.00 0.00 0.00 57 1016.7
20260503002020 45 0.0 0.0 0.00 0.00 0.00 56 1016.7
20260503001020 46 0.0 0.0 0.00 0.00 0.00 54 1016.5
20260503000020 46 0.0 0.9 0.00 0.00 0.00 53 1016.5
20260502235020 47 0.0 0.0 0.00 0.00 0.00 53 1016.6